Time,TemperatureF,DewpointF,PressureIn,WindDirection,WindDirectionDegrees,WindSpeedMPH,WindSpeedGustMPH,Humidity,HourlyPrecipIn,Conditions,Clouds,dailyrainin,SoftwareType,DateUTC
2013-08-05 00:04:00,87.1,70.0,29.73,North,0,0.0,0.0,57,0.00,CLR,,0.00,WeatherDisplay:10.37,2013-08-05 05:04:00,
2013-08-05 00:09:00,86.9,70.3,29.73,North,0,0.0,0.0,58,0.00,CLR,,0.00,WeatherDisplay:10.37,2013-08-05 05:09:00,
2013-08-05 00:14:00,86.7,70.2,29.73,North,0,0.0,0.0,58,0.00,CLR,,0.00,WeatherDisplay:10.37,2013-08-05 05:14:00,
2013-08-05 00:19:00,86.7,70.2,29.73,North,0,0.0,0.0,58,0.00,CLR,,0.00,WeatherDisplay:10.37,2013-08-05 05:19:00,
2013-08-05 00:24:00,86.5,70.5,29.72,North,0,0.0,0.0,59,0.00,CLR,,0.00,WeatherDisplay:10.37,2013-08-05 05:24:00,
2013-08-05 00:29:00,86.2,70.2,29.72,North,0,0.0,0.0,59,0.00,CLR,,0.00,WeatherDisplay:10.37,2013-08-05 05:29:00,
2013-08-05 00:34:00,86.0,70.0,29.72,North,0,0.0,0.0,59,0.00,CLR,,0.00,WeatherDisplay:10.37,2013-08-05 05:34:00,
2013-08-05 00:39:00,86.0,70.5,29.72,North,0,0.0,0.0,60,0.00,CLR,,0.00,WeatherDisplay:10.37,2013-08-05 05:39:00,
2013-08-05 00:44:00,85.8,70.3,29.72,North,0,0.0,0.0,60,0.00,CLR,,0.00,WeatherDisplay:10.37,2013-08-05 05:44:00,
2013-08-05 00:49:00,85.6,70.2,29.72,North,0,0.0,0.0,60,0.00,CLR,,0.00,WeatherDisplay:10.37,2013-08-05 05:49:00,
2013-08-05 00:54:00,85.6,70.6,29.72,North,0,0.0,0.0,61,0.00,CLR,,0.00,WeatherDisplay:10.37,2013-08-05 05:54:00,
2013-08-05 00:59:00,85.6,70.6,29.71,North,0,0.0,0.0,61,0.00,CLR,,0.00,WeatherDisplay:10.37,2013-08-05 05:59:00,
2013-08-05 01:04:00,85.5,70.5,29.72,North,0,0.0,0.0,61,0.00,CLR,,0.00,WeatherDisplay:10.37,2013-08-05 06:04:00,
2013-08-05 01:09:00,85.3,70.3,29.71,North,0,0.0,0.0,61,0.00,CLR,,0.00,WeatherDisplay:10.37,2013-08-05 06:09:00,
2013-08-05 01:14:00,85.3,70.8,29.71,North,0,0.0,0.0,62,0.00,CLR,,0.00,WeatherDisplay:10.37,2013-08-05 06:14:00,
2013-08-05 01:19:00,85.3,70.8,29.71,North,0,0.0,0.0,62,0.00,CLR,,0.00,WeatherDisplay:10.37,2013-08-05 06:19:00,
2013-08-05 01:24:00,85.1,70.6,29.71,North,0,0.0,0.0,62,0.00,CLR,,0.00,WeatherDisplay:10.37,2013-08-05 06:24:00,
2013-08-05 01:29:00,85.1,71.1,29.71,North,0,0.0,0.0,63,0.00,CLR,,0.00,WeatherDisplay:10.37,2013-08-05 06:29:00,
2013-08-05 01:34:00,85.1,71.1,29.70,North,0,0.0,0.0,63,0.00,CLR,,0.00,WeatherDisplay:10.37,2013-08-05 06:34:00,
2013-08-05 01:39:00,85.1,71.1,29.70,North,0,0.0,0.0,63,0.00,CLR,,0.00,WeatherDisplay:10.37,2013-08-05 06:39:00,
2013-08-05 01:44:00,84.9,71.4,29.70,North,0,0.0,0.0,64,0.00,CLR,,0.00,WeatherDisplay:10.37,2013-08-05 06:44:00,
2013-08-05 01:49:00,84.9,71.4,29.70,North,0,0.0,0.0,64,0.00,CLR,,0.00,WeatherDisplay:10.37,2013-08-05 06:49:00,
2013-08-05 01:54:00,84.7,71.7,29.70,North,0,0.0,0.0,65,0.00,CLR,,0.00,WeatherDisplay:10.37,2013-08-05 06:54:00,
2013-08-05 01:59:00,84.7,71.7,29.70,North,0,0.0,0.0,65,0.00,CLR,,0.00,WeatherDisplay:10.37,2013-08-05 06:59:00,
2013-08-05 02:04:00,84.6,71.5,29.70,North,0,0.0,0.0,65,0.00,CLR,,0.00,WeatherDisplay:10.37,2013-08-05 07:04:00,
2013-08-05 02:09:00,84.6,71.9,29.70,North,0,0.0,0.0,66,0.00,CLR,,0.00,WeatherDisplay:10.37,2013-08-05 07:09:00,
2013-08-05 02:14:00,84.6,71.9,29.70,North,0,0.0,0.0,66,0.00,CLR,,0.00,WeatherDisplay:10.37,2013-08-05 07:14:00,
2013-08-05 02:19:00,84.6,71.5,29.71,North,0,0.0,0.0,65,0.00,CLR,,0.00,WeatherDisplay:10.37,2013-08-05 07:19:00,
2013-08-05 02:24:00,84.6,71.5,29.71,North,0,0.0,0.0,65,0.00,CLR,,0.00,WeatherDisplay:10.37,2013-08-05 07:24:00,
2013-08-05 02:29:00,84.6,71.5,29.71,North,0,0.0,0.0,65,0.00,CLR,,0.00,WeatherDisplay:10.37,2013-08-05 07:29:00,
2013-08-05 02:34:00,84.4,71.3,29.71,North,0,0.0,0.0,65,0.00,CLR,,0.00,WeatherDisplay:10.37,2013-08-05 07:34:00,
2013-08-05 02:39:00,84.4,71.3,29.71,North,0,0.0,0.0,65,0.00,CLR,,0.00,WeatherDisplay:10.37,2013-08-05 07:39:00,
2013-08-05 02:44:00,84.4,71.8,29.72,North,0,0.0,0.0,66,0.00,CLR,,0.00,WeatherDisplay:10.37,2013-08-05 07:44:00,
2013-08-05 02:49:00,84.4,71.8,29.72,North,0,0.0,0.0,66,0.00,CLR,,0.00,WeatherDisplay:10.37,2013-08-05 07:49:00,
2013-08-05 02:54:00,84.2,71.6,29.72,North,0,0.0,0.0,66,0.00,CLR,,0.00,WeatherDisplay:10.37,2013-08-05 07:54:00,
2013-08-05 02:59:00,84.2,71.6,29.71,North,0,0.0,0.0,66,0.00,CLR,,0.00,WeatherDisplay:10.37,2013-08-05 07:59:00,
2013-08-05 03:04:00,84.2,71.6,29.72,North,0,0.0,0.0,66,0.00,CLR,,0.00,WeatherDisplay:10.37,2013-08-05 08:04:00,
2013-08-05 03:09:00,84.0,71.9,29.72,North,0,0.0,0.0,67,0.00,CLR,,0.00,WeatherDisplay:10.37,2013-08-05 08:09:00,
2013-08-05 03:14:00,84.0,71.9,29.72,North,0,0.0,0.0,67,0.00,CLR,,0.00,WeatherDisplay:10.37,2013-08-05 08:14:00,
2013-08-05 03:19:00,84.0,71.9,29.72,North,0,0.0,0.0,67,0.00,CLR,,0.00,WeatherDisplay:10.37,2013-08-05 08:19:00,
2013-08-05 03:24:00,84.0,71.9,29.72,North,0,0.0,0.0,67,0.00,CLR,,0.00,WeatherDisplay:10.37,2013-08-05 08:24:00,
2013-08-05 03:29:00,83.8,71.7,29.72,North,0,0.0,0.0,67,0.00,CLR,,0.00,WeatherDisplay:10.37,2013-08-05 08:29:00,
2013-08-05 03:34:00,83.8,71.7,29.72,North,0,0.0,0.0,67,0.00,CLR,,0.00,WeatherDisplay:10.37,2013-08-05 08:34:00,
2013-08-05 03:40:00,83.8,71.7,29.72,North,0,0.0,0.0,67,0.00,CLR,,0.00,WeatherDisplay:10.37,2013-08-05 08:40:00,
2013-08-05 03:45:00,83.8,72.1,29.71,North,0,0.0,0.0,68,0.00,CLR,,0.00,WeatherDisplay:10.37,2013-08-05 08:45:00,
2013-08-05 03:50:00,83.7,72.0,29.72,North,0,0.0,0.0,68,0.00,CLR,,0.00,WeatherDisplay:10.37,2013-08-05 08:50:00,
2013-08-05 03:57:00,83.5,72.2,29.72,North,0,0.0,0.0,69,0.00,CLR,,0.00,WeatherDisplay:10.37,2013-08-05 08:57:00,
2013-08-05 04:02:00,83.3,72.1,29.72,North,0,0.0,0.0,69,0.00,CLR,,0.00,WeatherDisplay:10.37,2013-08-05 09:02:00,
2013-08-05 04:07:00,83.3,72.1,29.72,North,0,0.0,0.0,69,0.00,CLR,,0.00,WeatherDisplay:10.37,2013-08-05 09:07:00,
2013-08-05 04:12:00,83.1,71.9,29.71,North,0,0.0,0.0,69,0.00,CLR,,0.00,WeatherDisplay:10.37,2013-08-05 09:12:00,
2013-08-05 04:18:00,83.1,71.9,29.72,North,0,0.0,0.0,69,0.00,CLR,,0.00,WeatherDisplay:10.37,2013-08-05 09:18:00,
2013-08-05 04:22:00,83.1,71.9,29.72,North,0,0.0,0.0,69,0.00,CLR,,0.00,WeatherDisplay:10.37,2013-08-05 09:22:00,
2013-08-05 04:27:00,83.1,71.9,29.72,North,0,0.0,0.0,69,0.00,CLR,,0.00,WeatherDisplay:10.37,2013-08-05 09:27:00,
2013-08-05 04:33:00,82.9,72.1,29.72,North,0,0.0,0.0,70,0.00,CLR,,0.00,WeatherDisplay:10.37,2013-08-05 09:33:00,
2013-08-05 04:38:00,82.8,72.0,29.72,North,0,0.0,0.0,70,0.00,CLR,,0.00,WeatherDisplay:10.37,2013-08-05 09:38:00,
2013-08-05 04:43:00,82.8,72.0,29.72,North,0,0.0,0.0,70,0.00,CLR,,0.00,WeatherDisplay:10.37,2013-08-05 09:43:00,
2013-08-05 04:48:00,82.6,71.8,29.72,North,0,0.0,0.0,70,0.00,CLR,,0.00,WeatherDisplay:10.37,2013-08-05 09:48:00,
2013-08-05 04:54:00,82.4,71.6,29.72,North,0,0.0,0.0,70,0.00,CLR,,0.00,WeatherDisplay:10.37,2013-08-05 09:54:00,
2013-08-05 05:00:00,82.4,71.6,29.72,North,0,0.0,0.0,70,0.00,CLR,,0.00,WeatherDisplay:10.37,2013-08-05 10:00:00,
2013-08-05 05:05:00,82.4,72.0,29.71,North,0,0.0,0.0,71,0.00,CLR,,0.00,WeatherDisplay:10.37,2013-08-05 10:05:00,
2013-08-05 05:10:00,82.2,71.5,29.72,North,0,0.0,0.0,70,0.00,CLR,,0.00,WeatherDisplay:10.37,2013-08-05 10:10:00,
2013-08-05 05:15:00,82.2,71.5,29.72,North,0,0.0,0.0,70,0.00,CLR,,0.00,WeatherDisplay:10.37,2013-08-05 10:15:00,
2013-08-05 05:20:00,82.0,71.3,29.72,North,0,0.0,0.0,70,0.00,CLR,,0.00,WeatherDisplay:10.37,2013-08-05 10:20:00,
2013-08-05 05:25:00,82.0,71.3,29.72,North,0,0.0,0.0,70,0.00,CLR,,0.00,WeatherDisplay:10.37,2013-08-05 10:25:00,
2013-08-05 05:31:00,81.9,71.1,29.72,North,0,0.0,0.0,70,0.00,CLR,,0.00,WeatherDisplay:10.37,2013-08-05 10:31:00,
2013-08-05 05:36:00,81.9,71.1,29.72,North,0,0.0,0.0,70,0.00,CLR,,0.00,WeatherDisplay:10.37,2013-08-05 10:36:00,
2013-08-05 05:41:00,81.7,70.9,29.72,North,0,0.0,0.0,70,0.00,CLR,,0.00,WeatherDisplay:10.37,2013-08-05 10:41:00,
2013-08-05 05:47:00,81.7,71.4,29.72,North,0,0.0,0.0,71,0.00,CLR,,0.00,WeatherDisplay:10.37,2013-08-05 10:47:00,
2013-08-05 05:52:00,81.7,71.4,29.72,North,0,0.0,0.0,71,0.00,CLR,,0.00,WeatherDisplay:10.37,2013-08-05 10:52:00,
2013-08-05 05:57:00,81.5,71.2,29.72,North,0,0.0,0.0,71,0.00,CLR,,0.00,WeatherDisplay:10.37,2013-08-05 10:57:00,
2013-08-05 06:02:00,81.5,71.2,29.72,North,0,0.0,0.0,71,0.00,CLR,,0.00,WeatherDisplay:10.37,2013-08-05 11:02:00,
2013-08-05 06:07:00,81.3,70.6,29.72,North,0,0.0,0.0,70,0.00,CLR,,0.00,WeatherDisplay:10.37,2013-08-05 11:07:00,
2013-08-05 06:12:00,81.3,70.6,29.72,North,0,0.0,0.0,70,0.00,CLR,,0.00,WeatherDisplay:10.37,2013-08-05 11:12:00,
2013-08-05 06:17:00,81.1,70.4,29.73,North,0,0.0,0.0,70,0.00,CLR,,0.00,WeatherDisplay:10.37,2013-08-05 11:17:00,
2013-08-05 06:22:00,81.1,70.4,29.73,North,0,0.0,0.0,70,0.00,CLR,,0.00,WeatherDisplay:10.37,2013-08-05 11:22:00,
2013-08-05 06:27:00,81.0,70.7,29.73,North,0,0.0,0.0,71,0.00,CLR,,0.00,WeatherDisplay:10.37,2013-08-05 11:27:00,
2013-08-05 06:33:00,81.0,70.3,29.73,North,0,0.0,0.0,70,0.00,CLR,,0.00,WeatherDisplay:10.37,2013-08-05 11:33:00,
2013-08-05 06:39:00,80.8,70.5,29.73,North,0,0.0,0.0,71,0.00,CLR,,0.00,WeatherDisplay:10.37,2013-08-05 11:39:00,
2013-08-05 06:44:00,80.8,70.1,29.73,North,0,0.0,0.0,70,0.00,CLR,,0.00,WeatherDisplay:10.37,2013-08-05 11:44:00,
2013-08-05 06:49:00,80.6,69.9,29.74,North,0,0.0,0.0,70,0.00,CLR,,0.00,WeatherDisplay:10.37,2013-08-05 11:49:00,
2013-08-05 06:54:00,80.6,69.9,29.74,North,0,0.0,0.0,70,0.00,CLR,,0.00,WeatherDisplay:10.37,2013-08-05 11:54:00,
2013-08-05 06:59:00,80.6,69.9,29.74,North,0,0.0,0.0,70,0.00,CLR,,0.00,WeatherDisplay:10.37,2013-08-05 11:59:00,
2013-08-05 07:04:00,80.6,70.3,29.74,North,0,0.0,0.0,71,0.00,CLR,,0.00,WeatherDisplay:10.37,2013-08-05 12:04:00,
2013-08-05 07:09:00,80.4,70.2,29.74,North,0,0.0,0.0,71,0.00,CLR,,0.00,WeatherDisplay:10.37,2013-08-05 12:09:00,
2013-08-05 07:14:00,80.4,70.2,29.74,North,0,0.0,0.0,71,0.00,CLR,,0.00,WeatherDisplay:10.37,2013-08-05 12:14:00,
2013-08-05 07:19:00,80.6,70.3,29.74,North,0,0.0,0.0,71,0.00,CLR,,0.00,WeatherDisplay:10.37,2013-08-05 12:19:00,
2013-08-05 07:24:00,80.6,70.3,29.74,North,0,0.0,0.0,71,0.00,CLR,,0.00,WeatherDisplay:10.37,2013-08-05 12:24:00,
2013-08-05 07:30:00,80.6,70.3,29.74,North,0,0.0,0.0,71,0.00,CLR,,0.00,WeatherDisplay:10.37,2013-08-05 12:30:00,
2013-08-05 07:34:00,80.6,70.3,29.74,North,0,0.0,0.0,71,0.00,CLR,,0.00,WeatherDisplay:10.37,2013-08-05 12:34:00,
2013-08-05 07:40:00,80.8,70.5,29.74,North,0,0.0,0.0,71,0.00,CLR,,0.00,WeatherDisplay:10.37,2013-08-05 12:40:00,
2013-08-05 07:45:00,80.8,70.5,29.74,North,0,0.0,0.0,71,0.00,CLR,,0.00,WeatherDisplay:10.37,2013-08-05 12:45:00,
2013-08-05 07:51:00,81.0,70.7,29.74,North,0,0.0,0.0,71,0.00,CLR,,0.00,WeatherDisplay:10.37,2013-08-05 12:51:00,
2013-08-05 07:56:00,81.0,70.7,29.74,North,0,0.0,0.0,71,0.00,CLR,,0.00,WeatherDisplay:10.37,2013-08-05 12:56:00,
2013-08-05 08:01:00,81.0,70.7,29.74,North,0,0.0,0.0,71,0.00,CLR,,0.00,WeatherDisplay:10.37,2013-08-05 13:01:00,
2013-08-05 08:06:00,81.3,70.6,29.74,North,0,0.0,0.0,70,0.00,CLR,,0.00,WeatherDisplay:10.37,2013-08-05 13:06:00,
2013-08-05 08:12:00,81.3,70.6,29.74,North,0,0.0,0.0,70,0.00,CLR,,0.00,WeatherDisplay:10.37,2013-08-05 13:12:00,
2013-08-05 08:17:00,81.5,70.3,29.74,North,0,0.0,0.0,69,0.00,CLR,,0.00,WeatherDisplay:10.37,2013-08-05 13:17:00,
2013-08-05 08:22:00,81.7,70.5,29.74,North,0,0.0,0.0,69,0.00,CLR,,0.00,WeatherDisplay:10.37,2013-08-05 13:22:00,
2013-08-05 08:27:00,81.9,70.7,29.74,North,0,0.0,0.0,69,0.00,CLR,,0.00,WeatherDisplay:10.37,2013-08-05 13:27:00,
2013-08-05 08:32:00,82.0,70.4,29.75,North,0,0.0,0.0,68,0.00,CLR,,0.00,WeatherDisplay:10.37,2013-08-05 13:32:00,
2013-08-05 08:38:00,82.0,70.0,29.75,North,0,0.0,0.0,67,0.00,CLR,,0.00,WeatherDisplay:10.37,2013-08-05 13:38:00,
2013-08-05 08:43:00,82.4,69.9,29.75,North,0,0.0,0.0,66,0.00,CLR,,0.00,WeatherDisplay:10.37,2013-08-05 13:43:00,
2013-08-05 08:48:00,82.6,70.5,29.75,North,0,0.0,0.0,67,0.00,CLR,,0.00,WeatherDisplay:10.37,2013-08-05 13:48:00,
2013-08-05 08:53:00,82.8,70.2,29.75,North,0,0.0,0.0,66,0.00,CLR,,0.00,WeatherDisplay:10.37,2013-08-05 13:53:00,
2013-08-05 08:59:00,83.1,70.1,29.75,North,0,0.0,0.0,65,0.00,CLR,,0.00,WeatherDisplay:10.37,2013-08-05 13:59:00,
2013-08-05 09:04:00,83.5,69.6,29.75,North,0,0.0,0.0,63,0.00,CLR,,0.00,WeatherDisplay:10.37,2013-08-05 14:04:00,
2013-08-05 09:09:00,83.7,69.7,29.75,North,0,0.0,0.0,63,0.00,CLR,,0.00,WeatherDisplay:10.37,2013-08-05 14:09:00,
2013-08-05 09:14:00,83.8,69.0,29.75,North,0,0.0,0.0,61,0.00,CLR,,0.00,WeatherDisplay:10.37,2013-08-05 14:14:00,
2013-08-05 09:19:00,84.0,69.1,29.75,North,0,0.0,0.0,61,0.00,CLR,,0.00,WeatherDisplay:10.37,2013-08-05 14:19:00,
2013-08-05 09:25:00,84.4,69.0,29.75,North,0,0.0,0.0,60,0.00,CLR,,0.00,WeatherDisplay:10.37,2013-08-05 14:25:00,
2013-08-05 09:30:00,84.7,68.8,29.75,North,0,0.0,0.0,59,0.00,CLR,,0.00,WeatherDisplay:10.37,2013-08-05 14:30:00,
2013-08-05 09:35:00,84.9,69.0,29.75,North,0,0.0,0.0,59,0.00,CLR,,0.00,WeatherDisplay:10.37,2013-08-05 14:35:00,
2013-08-05 09:40:00,85.1,69.2,29.75,North,0,0.0,0.0,59,0.00,CLR,,0.00,WeatherDisplay:10.37,2013-08-05 14:40:00,
2013-08-05 09:45:00,85.3,69.3,29.75,North,0,0.0,0.0,59,0.00,CLR,,0.00,WeatherDisplay:10.37,2013-08-05 14:45:00,
2013-08-05 09:50:00,85.5,68.5,29.75,North,0,0.0,0.0,57,0.00,CLR,,0.00,WeatherDisplay:10.37,2013-08-05 14:50:00,
2013-08-05 09:55:00,85.8,68.8,29.75,North,0,0.0,0.0,57,0.00,CLR,,0.00,WeatherDisplay:10.37,2013-08-05 14:55:00,
2013-08-05 10:00:00,86.0,68.5,29.76,North,0,0.0,0.0,56,0.00,CLR,,0.00,WeatherDisplay:10.37,2013-08-05 15:00:00,
2013-08-05 10:05:00,86.0,69.0,29.75,North,0,0.0,0.0,57,0.00,CLR,,0.00,WeatherDisplay:10.37,2013-08-05 15:05:00,
2013-08-05 10:10:00,86.4,68.8,29.76,North,0,0.0,0.0,56,0.00,CLR,,0.00,WeatherDisplay:10.37,2013-08-05 15:10:00,
2013-08-05 10:16:00,86.5,69.0,29.75,North,0,0.0,0.0,56,0.00,CLR,,0.00,WeatherDisplay:10.37,2013-08-05 15:16:00,
2013-08-05 10:21:00,86.9,68.8,29.75,North,0,0.0,0.0,55,0.00,CLR,,0.00,WeatherDisplay:10.37,2013-08-05 15:21:00,
2013-08-05 10:25:00,87.1,68.4,29.75,North,0,0.0,0.0,54,0.00,CLR,,0.00,WeatherDisplay:10.37,2013-08-05 15:25:00,
2013-08-05 10:31:00,87.4,67.7,29.75,North,0,0.0,0.0,52,0.00,CLR,,0.00,WeatherDisplay:10.37,2013-08-05 15:31:00,
2013-08-05 10:36:00,87.6,67.8,29.76,North,0,0.0,0.0,52,0.00,CLR,,0.00,WeatherDisplay:10.37,2013-08-05 15:36:00,
2013-08-05 10:42:00,87.8,68.0,29.75,North,0,0.0,0.0,52,0.00,CLR,,0.00,WeatherDisplay:10.37,2013-08-05 15:42:00,
2013-08-05 10:47:00,88.0,67.6,29.75,North,0,0.0,0.0,51,0.00,CLR,,0.00,WeatherDisplay:10.37,2013-08-05 15:47:00,
2013-08-05 10:52:00,88.2,67.8,29.75,North,0,0.0,0.0,51,0.00,CLR,,0.00,WeatherDisplay:10.37,2013-08-05 15:52:00,
2013-08-05 10:57:00,88.5,68.1,29.75,North,0,0.0,0.0,51,0.00,CLR,,0.00,WeatherDisplay:10.37,2013-08-05 15:57:00,
2013-08-05 11:03:00,88.9,68.4,29.75,North,0,0.0,0.0,51,0.00,CLR,,0.00,WeatherDisplay:10.37,2013-08-05 16:03:00,
2013-08-05 11:08:00,89.2,68.7,29.75,North,0,0.0,0.0,51,0.00,CLR,,0.00,WeatherDisplay:10.37,2013-08-05 16:08:00,
2013-08-05 11:13:00,89.6,67.9,29.74,North,0,0.0,0.0,49,0.00,CLR,,0.00,WeatherDisplay:10.37,2013-08-05 16:13:00,
2013-08-05 11:18:00,89.8,68.7,29.74,North,0,0.0,0.0,50,0.00,CLR,,0.00,WeatherDisplay:10.37,2013-08-05 16:18:00,
2013-08-05 11:23:00,89.8,68.1,29.74,North,0,0.0,0.0,49,0.00,CLR,,0.00,WeatherDisplay:10.37,2013-08-05 16:23:00,
2013-08-05 11:28:00,90.0,68.2,29.74,North,0,0.0,0.0,49,0.00,CLR,,0.00,WeatherDisplay:10.37,2013-08-05 16:28:00,
2013-08-05 11:34:00,90.3,68.6,29.74,North,0,0.0,0.0,49,0.00,CLR,,0.00,WeatherDisplay:10.37,2013-08-05 16:34:00,
2013-08-05 11:39:00,90.7,68.3,29.74,North,0,0.0,0.0,48,0.00,CLR,,0.00,WeatherDisplay:10.37,2013-08-05 16:39:00,
2013-08-05 11:44:00,90.7,67.7,29.74,North,0,0.0,0.0,47,0.00,CLR,,0.00,WeatherDisplay:10.37,2013-08-05 16:44:00,
2013-08-05 11:49:00,91.0,68.6,29.74,North,0,0.0,0.0,48,0.00,CLR,,0.00,WeatherDisplay:10.37,2013-08-05 16:49:00,
2013-08-05 11:55:00,91.6,69.7,29.74,North,0,0.0,0.0,49,0.00,CLR,,0.00,WeatherDisplay:10.37,2013-08-05 16:55:00,
2013-08-05 12:00:00,91.8,69.3,29.73,North,0,0.0,0.0,48,0.00,CLR,,0.00,WeatherDisplay:10.37,2013-08-05 17:00:00,
2013-08-05 12:05:00,91.9,68.8,29.73,North,0,0.0,0.0,47,0.00,CLR,,0.00,WeatherDisplay:10.37,2013-08-05 17:05:00,
2013-08-05 12:10:00,92.1,68.4,29.73,North,0,0.0,0.0,46,0.00,CLR,,0.00,WeatherDisplay:10.37,2013-08-05 17:10:00,
2013-08-05 12:16:00,92.3,67.9,29.73,North,0,0.0,0.0,45,0.00,CLR,,0.00,WeatherDisplay:10.37,2013-08-05 17:16:00,
2013-08-05 12:22:00,92.7,67.6,29.73,North,0,0.0,0.0,44,0.00,CLR,,0.00,WeatherDisplay:10.37,2013-08-05 17:22:00,
2013-08-05 12:28:00,92.8,68.4,29.72,North,0,0.0,0.0,45,0.00,CLR,,0.00,WeatherDisplay:10.37,2013-08-05 17:28:00,
2013-08-05 12:33:00,93.2,67.4,29.72,North,0,0.0,0.0,43,0.00,CLR,,0.00,WeatherDisplay:10.37,2013-08-05 17:33:00,
2013-08-05 12:38:00,93.4,68.2,29.72,North,0,0.0,0.0,44,0.00,CLR,,0.00,WeatherDisplay:10.37,2013-08-05 17:38:00,
2013-08-05 12:44:00,93.9,67.3,29.72,North,0,0.0,0.0,42,0.00,CLR,,0.00,WeatherDisplay:10.37,2013-08-05 17:44:00,
2013-08-05 12:50:00,93.9,68.0,29.72,North,0,0.0,0.0,43,0.00,CLR,,0.00,WeatherDisplay:10.37,2013-08-05 17:50:00,
2013-08-05 12:54:00,94.1,68.2,29.72,North,0,0.0,0.0,43,0.00,CLR,,0.00,WeatherDisplay:10.37,2013-08-05 17:54:00,
2013-08-05 13:00:00,94.5,67.8,29.72,North,0,0.0,0.0,42,0.00,CLR,,0.00,WeatherDisplay:10.37,2013-08-05 18:00:00,
2013-08-05 13:06:00,94.5,67.8,29.71,North,0,0.0,0.0,42,0.00,CLR,,0.00,WeatherDisplay:10.37,2013-08-05 18:06:00,
2013-08-05 13:11:00,94.6,66.6,29.71,North,0,0.0,0.0,40,0.00,CLR,,0.00,WeatherDisplay:10.37,2013-08-05 18:11:00,
2013-08-05 13:16:00,94.8,68.1,29.71,North,0,0.0,0.0,42,0.00,CLR,,0.00,WeatherDisplay:10.37,2013-08-05 18:16:00,
2013-08-05 13:21:00,95.2,68.5,29.71,North,0,0.0,0.0,42,0.00,CLR,,0.00,WeatherDisplay:10.37,2013-08-05 18:21:00,
2013-08-05 13:26:00,95.5,68.1,29.70,North,0,0.0,0.0,41,0.00,CLR,,0.00,WeatherDisplay:10.37,2013-08-05 18:26:00,
2013-08-05 13:32:00,95.5,68.1,29.70,North,0,0.0,0.0,41,0.00,CLR,,0.00,WeatherDisplay:10.37,2013-08-05 18:32:00,
2013-08-05 13:37:00,95.7,68.3,29.70,North,0,0.0,0.0,41,0.00,CLR,,0.00,WeatherDisplay:10.37,2013-08-05 18:37:00,
2013-08-05 13:42:00,95.7,67.5,29.70,North,0,0.0,0.0,40,0.00,CLR,,0.00,WeatherDisplay:10.37,2013-08-05 18:42:00,
2013-08-05 13:48:00,96.1,67.9,29.69,North,0,0.0,0.0,40,0.00,CLR,,0.00,WeatherDisplay:10.37,2013-08-05 18:48:00,
2013-08-05 13:54:00,96.4,68.2,29.69,North,0,0.0,0.0,40,0.00,CLR,,0.00,WeatherDisplay:10.37,2013-08-05 18:54:00,
2013-08-05 13:59:00,96.6,68.3,29.69,North,0,0.0,0.0,40,0.00,CLR,,0.00,WeatherDisplay:10.37,2013-08-05 18:59:00,
2013-08-05 14:04:00,96.6,68.3,29.69,North,0,0.0,0.0,40,0.00,CLR,,0.00,WeatherDisplay:10.37,2013-08-05 19:04:00,
2013-08-05 14:10:00,96.8,67.8,29.68,North,0,0.0,0.0,39,0.00,CLR,,0.00,WeatherDisplay:10.37,2013-08-05 19:10:00,
2013-08-05 14:15:00,97.0,68.7,29.68,North,0,0.0,0.0,40,0.00,CLR,,0.00,WeatherDisplay:10.37,2013-08-05 19:15:00,
2013-08-05 14:20:00,97.2,65.8,29.68,North,0,0.0,0.0,36,0.00,CLR,,0.00,WeatherDisplay:10.37,2013-08-05 19:20:00,
2013-08-05 14:25:00,97.5,68.4,29.68,North,0,0.0,0.0,39,0.00,CLR,,0.00,WeatherDisplay:10.37,2013-08-05 19:25:00,
2013-08-05 14:31:00,97.3,68.2,29.68,North,0,0.0,0.0,39,0.00,CLR,,0.00,WeatherDisplay:10.37,2013-08-05 19:31:00,
2013-08-05 14:36:00,97.7,67.8,29.68,North,0,0.0,0.0,38,0.00,CLR,,0.00,WeatherDisplay:10.37,2013-08-05 19:36:00,
2013-08-05 14:41:00,97.9,66.4,29.68,North,0,0.0,0.0,36,0.00,CLR,,0.00,WeatherDisplay:10.37,2013-08-05 19:41:00,
2013-08-05 14:46:00,98.1,66.6,29.67,North,0,0.0,0.0,36,0.00,CLR,,0.00,WeatherDisplay:10.37,2013-08-05 19:46:00,
2013-08-05 14:51:00,98.2,66.7,29.67,North,0,0.0,0.0,36,0.00,CLR,,0.00,WeatherDisplay:10.37,2013-08-05 19:51:00,
2013-08-05 14:57:00,98.2,66.7,29.67,North,0,0.0,0.0,36,0.00,CLR,,0.00,WeatherDisplay:10.37,2013-08-05 19:57:00,
2013-08-05 15:02:00,98.4,66.9,29.67,North,0,0.0,0.0,36,0.00,CLR,,0.00,WeatherDisplay:10.37,2013-08-05 20:02:00,
2013-08-05 15:07:00,98.8,68.8,29.67,North,0,0.0,0.0,38,0.00,CLR,,0.00,WeatherDisplay:10.37,2013-08-05 20:07:00,
2013-08-05 15:12:00,99.0,67.3,29.67,North,0,0.0,0.0,36,0.00,CLR,,0.00,WeatherDisplay:10.37,2013-08-05 20:12:00,
2013-08-05 15:17:00,99.1,67.5,29.67,North,0,0.0,0.0,36,0.00,CLR,,0.00,WeatherDisplay:10.37,2013-08-05 20:17:00,
2013-08-05 15:23:00,99.3,66.8,29.66,North,0,0.0,0.0,35,0.00,CLR,,0.00,WeatherDisplay:10.37,2013-08-05 20:23:00,
2013-08-05 15:28:00,99.7,66.3,29.66,North,0,0.0,0.0,34,0.00,CLR,,0.00,WeatherDisplay:10.37,2013-08-05 20:28:00,
2013-08-05 15:33:00,99.5,67.0,29.66,North,0,0.0,0.0,35,0.00,CLR,,0.00,WeatherDisplay:10.37,2013-08-05 20:33:00,
2013-08-05 15:38:00,99.5,67.0,29.66,North,0,0.0,0.0,35,0.00,CLR,,0.00,WeatherDisplay:10.37,2013-08-05 20:38:00,
2013-08-05 15:43:00,99.7,68.0,29.65,North,0,0.0,0.0,36,0.00,CLR,,0.00,WeatherDisplay:10.37,2013-08-05 20:43:00,
2013-08-05 15:48:00,99.9,67.3,29.65,North,0,0.0,0.0,35,0.00,CLR,,0.00,WeatherDisplay:10.37,2013-08-05 20:48:00,
2013-08-05 15:53:00,100.0,68.3,29.65,North,0,0.0,0.0,36,0.00,CLR,,0.00,WeatherDisplay:10.37,2013-08-05 20:53:00,
2013-08-05 15:58:00,100.4,68.6,29.65,North,0,0.0,0.0,36,0.00,CLR,,0.00,WeatherDisplay:10.37,2013-08-05 20:58:00,
2013-08-05 16:03:00,100.4,66.9,29.64,North,0,0.0,0.0,34,0.00,CLR,,0.00,WeatherDisplay:10.37,2013-08-05 21:03:00,
2013-08-05 16:08:00,100.4,67.8,29.65,North,0,0.0,0.0,35,0.00,CLR,,0.00,WeatherDisplay:10.37,2013-08-05 21:08:00,
2013-08-05 16:13:00,100.4,67.8,29.64,North,0,0.0,0.0,35,0.00,CLR,,0.00,WeatherDisplay:10.37,2013-08-05 21:13:00,
2013-08-05 16:18:00,100.6,68.8,29.64,North,0,0.0,0.0,36,0.00,CLR,,0.00,WeatherDisplay:10.37,2013-08-05 21:18:00,
2013-08-05 16:23:00,100.8,68.1,29.64,North,0,0.0,0.0,35,0.00,CLR,,0.00,WeatherDisplay:10.37,2013-08-05 21:23:00,
2013-08-05 16:28:00,100.9,68.3,29.64,North,0,0.0,0.0,35,0.00,CLR,,0.00,WeatherDisplay:10.37,2013-08-05 21:28:00,
2013-08-05 16:33:00,101.1,68.4,29.64,North,0,0.0,0.0,35,0.00,CLR,,0.00,WeatherDisplay:10.37,2013-08-05 21:33:00,
2013-08-05 16:38:00,101.3,66.9,29.64,North,0,0.0,0.0,33,0.00,CLR,,0.00,WeatherDisplay:10.37,2013-08-05 21:38:00,
2013-08-05 16:43:00,101.5,67.0,29.63,North,0,0.0,0.0,33,0.00,CLR,,0.00,WeatherDisplay:10.37,2013-08-05 21:43:00,
2013-08-05 16:48:00,101.5,67.9,29.63,North,0,0.0,0.0,34,0.00,CLR,,0.00,WeatherDisplay:10.37,2013-08-05 21:48:00,
2013-08-05 16:53:00,101.3,65.1,29.62,North,0,0.0,0.0,31,0.00,CLR,,0.00,WeatherDisplay:10.37,2013-08-05 21:53:00,
2013-08-05 16:58:00,101.1,66.7,29.62,North,0,0.0,0.0,33,0.00,CLR,,0.00,WeatherDisplay:10.37,2013-08-05 21:58:00,
2013-08-05 17:03:00,101.5,67.9,29.62,North,0,0.0,0.0,34,0.00,CLR,,0.00,WeatherDisplay:10.37,2013-08-05 22:03:00,
2013-08-05 17:08:00,102.0,68.4,29.62,North,0,0.0,0.0,34,0.00,CLR,,0.00,WeatherDisplay:10.37,2013-08-05 22:08:00,
2013-08-05 17:13:00,102.6,68.0,29.62,North,0,0.0,0.0,33,0.00,CLR,,0.00,WeatherDisplay:10.37,2013-08-05 22:13:00,
2013-08-05 17:19:00,102.6,68.0,29.61,North,0,0.0,0.0,33,0.00,CLR,,0.00,WeatherDisplay:10.37,2013-08-05 22:19:00,
2013-08-05 17:24:00,102.6,68.0,29.61,North,0,0.0,0.0,33,0.00,CLR,,0.00,WeatherDisplay:10.37,2013-08-05 22:24:00,
2013-08-05 17:29:00,102.6,68.0,29.61,North,0,0.0,0.0,33,0.00,CLR,,0.00,WeatherDisplay:10.37,2013-08-05 22:29:00,
2013-08-05 17:34:00,102.9,68.3,29.61,North,0,0.0,0.0,33,0.00,CLR,,0.00,WeatherDisplay:10.37,2013-08-05 22:34:00,
2013-08-05 17:40:00,103.1,67.5,29.61,North,0,0.0,0.0,32,0.00,CLR,,0.00,WeatherDisplay:10.37,2013-08-05 22:40:00,
2013-08-05 17:45:00,102.9,67.4,29.61,North,0,0.0,0.0,32,0.00,CLR,,0.00,WeatherDisplay:10.37,2013-08-05 22:45:00,
2013-08-05 17:50:00,102.9,66.5,29.61,North,0,0.0,0.0,31,0.00,CLR,,0.00,WeatherDisplay:10.37,2013-08-05 22:50:00,
2013-08-05 17:55:00,103.1,67.5,29.61,North,0,0.0,0.0,32,0.00,CLR,,0.00,WeatherDisplay:10.37,2013-08-05 22:55:00,
2013-08-05 18:00:00,102.9,67.4,29.61,North,0,0.0,0.0,32,0.00,CLR,,0.00,WeatherDisplay:10.37,2013-08-05 23:00:00,
2013-08-05 18:06:00,103.1,66.6,29.61,North,0,0.0,0.0,31,0.00,CLR,,0.00,WeatherDisplay:10.37,2013-08-05 23:06:00,
2013-08-05 18:11:00,103.3,67.7,29.61,North,0,0.0,0.0,32,0.00,CLR,,0.00,WeatherDisplay:10.37,2013-08-05 23:11:00,
2013-08-05 18:17:00,103.1,66.6,29.60,North,0,0.0,0.0,31,0.00,CLR,,0.00,WeatherDisplay:10.37,2013-08-05 23:17:00,
2013-08-05 18:22:00,103.3,66.8,29.60,North,0,0.0,0.0,31,0.00,CLR,,0.00,WeatherDisplay:10.37,2013-08-05 23:22:00,
2013-08-05 18:27:00,103.3,65.8,29.60,North,0,0.0,0.0,30,0.00,CLR,,0.00,WeatherDisplay:10.37,2013-08-05 23:27:00,
2013-08-05 18:32:00,103.3,65.8,29.60,North,0,0.0,0.0,30,0.00,CLR,,0.00,WeatherDisplay:10.37,2013-08-05 23:32:00,
2013-08-05 18:38:00,102.9,64.5,29.60,North,0,0.0,0.0,29,0.00,CLR,,0.00,WeatherDisplay:10.37,2013-08-05 23:38:00,
2013-08-05 18:43:00,102.7,65.4,29.60,North,0,0.0,0.0,30,0.00,CLR,,0.00,WeatherDisplay:10.37,2013-08-05 23:43:00,
2013-08-05 18:48:00,102.7,65.4,29.60,North,0,0.0,0.0,30,0.00,CLR,,0.00,WeatherDisplay:10.37,2013-08-05 23:48:00,
2013-08-05 18:53:00,102.7,65.4,29.60,North,0,0.0,0.0,30,0.00,CLR,,0.00,WeatherDisplay:10.37,2013-08-05 23:53:00,
2013-08-05 18:58:00,102.6,65.2,29.60,North,0,0.0,0.0,30,0.00,CLR,,0.00,WeatherDisplay:10.37,2013-08-05 23:58:00,
2013-08-05 19:03:00,102.4,65.0,29.59,North,0,0.0,0.0,30,0.00,CLR,,0.00,WeatherDisplay:10.37,2013-08-06 00:03:00,
2013-08-05 19:09:00,101.8,64.6,29.59,North,0,0.0,0.0,30,0.00,CLR,,0.00,WeatherDisplay:10.37,2013-08-06 00:09:00,
2013-08-05 19:14:00,101.8,65.5,29.60,North,0,0.0,0.0,31,0.00,CLR,,0.00,WeatherDisplay:10.37,2013-08-06 00:14:00,
2013-08-05 19:19:00,101.8,64.6,29.60,North,0,0.0,0.0,30,0.00,CLR,,0.00,WeatherDisplay:10.37,2013-08-06 00:19:00,
2013-08-05 19:24:00,101.8,65.5,29.60,North,0,0.0,0.0,31,0.00,CLR,,0.00,WeatherDisplay:10.37,2013-08-06 00:24:00,
2013-08-05 19:29:00,101.7,65.4,29.60,North,0,0.0,0.0,31,0.00,CLR,,0.00,WeatherDisplay:10.37,2013-08-06 00:29:00,
2013-08-05 19:34:00,101.5,64.3,29.60,North,0,0.0,0.0,30,0.00,CLR,,0.00,WeatherDisplay:10.37,2013-08-06 00:34:00,
2013-08-05 19:39:00,101.3,65.1,29.59,North,0,0.0,0.0,31,0.00,CLR,,0.00,WeatherDisplay:10.37,2013-08-06 00:39:00,
2013-08-05 19:45:00,100.9,63.8,29.60,North,0,0.0,0.0,30,0.00,CLR,,0.00,WeatherDisplay:10.37,2013-08-06 00:45:00,
2013-08-05 19:50:00,100.8,64.6,29.60,North,0,0.0,0.0,31,0.00,CLR,,0.00,WeatherDisplay:10.37,2013-08-06 00:50:00,
2013-08-05 19:55:00,100.4,64.3,29.60,North,0,0.0,0.0,31,0.00,CLR,,0.00,WeatherDisplay:10.37,2013-08-06 00:55:00,
2013-08-05 20:00:00,100.0,64.9,29.60,North,0,0.0,0.0,32,0.00,CLR,,0.00,WeatherDisplay:10.37,2013-08-06 01:00:00,
2013-08-05 20:05:00,99.7,64.6,29.60,North,0,0.0,0.0,32,0.00,CLR,,0.00,WeatherDisplay:10.37,2013-08-06 01:05:00,
2013-08-05 20:10:00,99.1,65.0,29.60,North,0,0.0,0.0,33,0.00,CLR,,0.00,WeatherDisplay:10.37,2013-08-06 01:10:00,
2013-08-05 20:15:00,98.6,64.5,29.60,North,0,0.0,0.0,33,0.00,CLR,,0.00,WeatherDisplay:10.37,2013-08-06 01:15:00,
2013-08-05 20:20:00,97.9,63.9,29.60,North,0,0.0,0.0,33,0.00,CLR,,0.00,WeatherDisplay:10.37,2013-08-06 01:20:00,
2013-08-05 20:25:00,97.3,64.3,29.60,North,0,0.0,0.0,34,0.00,CLR,,0.00,WeatherDisplay:10.37,2013-08-06 01:25:00,
2013-08-05 20:30:00,96.8,63.8,29.60,North,0,0.0,0.0,34,0.00,CLR,,0.00,WeatherDisplay:10.37,2013-08-06 01:30:00,
2013-08-05 20:35:00,96.3,64.2,29.60,North,0,0.0,0.0,35,0.00,CLR,,0.00,WeatherDisplay:10.37,2013-08-06 01:35:00,
2013-08-05 20:42:00,95.7,63.7,29.60,North,0,0.0,0.0,35,0.00,CLR,,0.00,WeatherDisplay:10.37,2013-08-06 01:42:00,
2013-08-05 20:49:00,95.2,63.2,29.60,North,0,0.0,0.0,35,0.00,CLR,,0.00,WeatherDisplay:10.37,2013-08-06 01:49:00,
2013-08-05 20:55:00,94.8,63.7,29.60,North,0,0.0,0.0,36,0.00,CLR,,0.00,WeatherDisplay:10.37,2013-08-06 01:55:00,
2013-08-05 21:01:00,94.5,64.2,29.60,North,0,0.0,0.0,37,0.00,CLR,,0.00,WeatherDisplay:10.37,2013-08-06 02:01:00,
2013-08-05 21:06:00,94.1,64.6,29.60,North,0,0.0,0.0,38,0.00,CLR,,0.00,WeatherDisplay:10.37,2013-08-06 02:06:00,
2013-08-05 21:11:00,93.6,64.1,29.61,North,0,0.0,0.0,38,0.00,CLR,,0.00,WeatherDisplay:10.37,2013-08-06 02:11:00,
2013-08-05 21:16:00,93.4,64.0,29.60,North,0,0.0,0.0,38,0.00,CLR,,0.00,WeatherDisplay:10.37,2013-08-06 02:16:00,
2013-08-05 21:21:00,93.2,64.6,29.61,North,0,0.0,0.0,39,0.00,CLR,,0.00,WeatherDisplay:10.37,2013-08-06 02:21:00,
2013-08-05 21:26:00,92.8,64.2,29.61,North,0,0.0,0.0,39,0.00,CLR,,0.00,WeatherDisplay:10.37,2013-08-06 02:26:00,
2013-08-05 21:31:00,92.5,63.9,29.61,North,0,0.0,0.0,39,0.00,CLR,,0.00,WeatherDisplay:10.37,2013-08-06 02:31:00,
2013-08-05 21:36:00,92.5,63.9,29.62,North,0,0.0,0.0,39,0.00,CLR,,0.00,WeatherDisplay:10.37,2013-08-06 02:36:00,
2013-08-05 21:41:00,92.3,63.8,29.62,North,0,0.0,0.0,39,0.00,CLR,,0.00,WeatherDisplay:10.37,2013-08-06 02:41:00,
2013-08-05 21:46:00,92.3,64.5,29.62,North,0,0.0,0.0,40,0.00,CLR,,0.00,WeatherDisplay:10.37,2013-08-06 02:46:00,
2013-08-05 21:51:00,92.1,64.3,29.62,North,0,0.0,0.0,40,0.00,CLR,,0.00,WeatherDisplay:10.37,2013-08-06 02:51:00,
2013-08-05 21:56:00,91.9,64.2,29.62,North,0,0.0,0.0,40,0.00,CLR,,0.00,WeatherDisplay:10.37,2013-08-06 02:56:00,
2013-08-05 22:01:00,91.8,64.0,29.62,North,0,0.0,0.0,40,0.00,CLR,,0.00,WeatherDisplay:10.37,2013-08-06 03:01:00,
2013-08-05 22:07:00,91.8,64.0,29.63,North,0,0.0,0.0,40,0.00,CLR,,0.00,WeatherDisplay:10.37,2013-08-06 03:07:00,
2013-08-05 22:12:00,91.8,64.7,29.63,North,0,0.0,0.0,41,0.00,CLR,,0.00,WeatherDisplay:10.37,2013-08-06 03:12:00,
2013-08-05 22:17:00,91.6,64.6,29.63,North,0,0.0,0.0,41,0.00,CLR,,0.00,WeatherDisplay:10.37,2013-08-06 03:17:00,
2013-08-05 22:22:00,91.2,64.2,29.63,North,0,0.0,0.0,41,0.00,CLR,,0.00,WeatherDisplay:10.37,2013-08-06 03:22:00,
2013-08-05 22:27:00,91.0,64.8,29.63,North,0,0.0,0.0,42,0.00,CLR,,0.00,WeatherDisplay:10.37,2013-08-06 03:27:00,
2013-08-05 22:32:00,90.7,65.1,29.63,North,0,0.0,0.0,43,0.00,CLR,,0.00,WeatherDisplay:10.37,2013-08-06 03:32:00,
2013-08-05 22:38:00,90.5,64.9,29.63,North,0,0.0,0.0,43,0.00,CLR,,0.00,WeatherDisplay:10.37,2013-08-06 03:38:00,
2013-08-05 22:43:00,90.3,64.8,29.63,North,0,0.0,0.0,43,0.00,CLR,,0.00,WeatherDisplay:10.37,2013-08-06 03:43:00,
2013-08-05 22:48:00,90.3,64.8,29.63,North,0,0.0,0.0,43,0.00,CLR,,0.00,WeatherDisplay:10.37,2013-08-06 03:48:00,
2013-08-05 22:54:00,90.0,65.1,29.63,North,0,0.0,0.0,44,0.00,CLR,,0.00,WeatherDisplay:10.37,2013-08-06 03:54:00,
2013-08-05 22:59:00,89.8,65.6,29.63,North,0,0.0,0.0,45,0.00,CLR,,0.00,WeatherDisplay:10.37,2013-08-06 03:59:00,
2013-08-05 23:01:00,89.6,65.4,29.62,North,0,0.0,0.0,45,0.00,CLR,,0.00,WeatherDisplay:10.37,2013-08-06 04:01:00,
2013-08-05 23:02:00,89.6,65.4,29.62,North,0,0.0,0.0,45,0.00,CLR,,0.00,WeatherDisplay:10.37,2013-08-06 04:02:00,
2013-08-05 23:07:00,89.4,65.3,29.62,North,0,0.0,0.0,45,0.00,CLR,,0.00,WeatherDisplay:10.37,2013-08-06 04:07:00,
2013-08-05 23:12:00,89.1,65.0,29.62,North,0,0.0,0.0,45,0.00,CLR,,0.00,WeatherDisplay:10.37,2013-08-06 04:12:00,
2013-08-05 23:17:00,88.9,64.8,29.62,North,0,0.0,0.0,45,0.00,CLR,,0.00,WeatherDisplay:10.37,2013-08-06 04:17:00,
2013-08-05 23:22:00,88.5,65.1,29.62,North,0,0.0,0.0,46,0.00,CLR,,0.00,WeatherDisplay:10.37,2013-08-06 04:22:00,
2013-08-05 23:27:00,88.3,64.9,29.62,North,0,0.0,0.0,46,0.00,CLR,,0.00,WeatherDisplay:10.37,2013-08-06 04:27:00,
2013-08-05 23:32:00,88.3,65.6,29.62,North,0,0.0,0.0,47,0.00,CLR,,0.00,WeatherDisplay:10.37,2013-08-06 04:32:00,
2013-08-05 23:37:00,88.2,65.4,29.62,North,0,0.0,0.0,47,0.00,CLR,,0.00,WeatherDisplay:10.37,2013-08-06 04:37:00,
2013-08-05 23:42:00,88.0,65.2,29.63,North,0,0.0,0.0,47,0.00,CLR,,0.00,WeatherDisplay:10.37,2013-08-06 04:42:00,
2013-08-05 23:47:00,87.8,65.1,29.63,North,0,0.0,0.0,47,0.00,CLR,,0.00,WeatherDisplay:10.37,2013-08-06 04:47:00,
2013-08-05 23:52:00,87.8,65.1,29.63,North,0,0.0,0.0,47,0.00,CLR,,0.00,WeatherDisplay:10.37,2013-08-06 04:52:00,
2013-08-05 23:57:00,87.6,65.5,29.62,North,0,0.0,0.0,48,0.00,CLR,,0.00,WeatherDisplay:10.37,2013-08-06 04:57:00,